CFG11M EDDS-LGKO

Flight info

Callsign CFG11M
Flight time N/A
Altitude 33000
Route ABTAL4H ABTAL L173 RIXED Y161 MAH L173 EBEDA L603 LATLO DCT OBEDI DCT DIPSA DCT LURID DCT TORTO DCT VABEK UL603 OLOTA DCT RUGAS UN128 FSK DCT GIKAS DCT MES UN139 LURUS L995 KOPAR
Aircraft A321/M-SDE3FGHIRWY/LB1

Departure

Time N/A
Airport Stuttgart Airport (EDDS)

Arrival

Time 2026-05-08 10:47
Airport Kos International Airport "Ippokratis" (LGKO)
Time Latitude Longitude Altitude Speed Heading
2026-05-08 08:22 48.71771 10.04962 15449 ft 387 kts 119°
2026-05-08 08:23 48.70505 10.08569 15937 ft 390 kts 119°
2026-05-08 08:23 48.69228 10.12208 16424 ft 393 kts 119°
2026-05-08 08:23 48.67958 10.15821 16909 ft 396 kts 119°
2026-05-08 08:23 48.66659 10.19506 17373 ft 398 kts 119°
2026-05-08 08:24 48.65346 10.23214 17836 ft 401 kts 119°
2026-05-08 08:24 48.64020 10.26951 18291 ft 404 kts 119°
2026-05-08 08:24 48.62684 10.30709 18700 ft 407 kts 119°
2026-05-08 08:24 48.61339 10.34489 19076 ft 410 kts 119°
2026-05-08 08:25 48.59984 10.38293 19463 ft 412 kts 120°
2026-05-08 08:25 48.58626 10.42107 19844 ft 414 kts 120°
2026-05-08 08:25 48.57276 10.45901 20233 ft 417 kts 120°
2026-05-08 08:25 48.55900 10.49765 20615 ft 419 kts 120°
2026-05-08 08:26 48.54514 10.53647 21007 ft 421 kts 120°
2026-05-08 08:26 48.53120 10.57541 21386 ft 424 kts 120°
2026-05-08 08:26 48.51714 10.61461 21758 ft 426 kts 120°
2026-05-08 08:26 48.50297 10.65404 22129 ft 428 kts 120°
2026-05-08 08:27 48.48873 10.69364 22500 ft 430 kts 120°
2026-05-08 08:27 48.47461 10.73283 22863 ft 433 kts 120°
2026-05-08 08:27 48.46020 10.77279 23228 ft 435 kts 120°
2026-05-08 08:27 48.44572 10.81286 23585 ft 437 kts 120°
2026-05-08 08:28 48.43111 10.85318 23895 ft 440 kts 120°
2026-05-08 08:28 48.41641 10.89368 24168 ft 442 kts 120°
2026-05-08 08:28 48.40162 10.93440 24466 ft 444 kts 121°
2026-05-08 08:28 48.38674 10.97526 24754 ft 446 kts 121°
2026-05-08 08:29 48.37178 11.01626 25039 ft 448 kts 121°
2026-05-08 08:29 48.35674 11.05744 25322 ft 450 kts 121°
2026-05-08 08:29 48.34166 11.09876 25619 ft 452 kts 121°
2026-05-08 08:29 48.32671 11.13970 25901 ft 453 kts 121°
2026-05-08 08:30 48.31149 11.18121 26181 ft 455 kts 121°
2026-05-08 08:30 48.29615 11.22292 26450 ft 457 kts 121°
2026-05-08 08:30 48.26649 11.30798 26952 ft 464 kts 114°
2026-05-08 08:31 48.25649 11.35420 27213 ft 468 kts 105°
2026-05-08 08:31 48.24885 11.40184 27447 ft 470 kts 105°
2026-05-08 08:31 48.24114 11.44961 27701 ft 472 kts 105°
2026-05-08 08:31 48.23334 11.49741 27943 ft 474 kts 105°
2026-05-08 08:32 48.22553 11.54482 28175 ft 475 kts 106°
2026-05-08 08:32 48.21752 11.59309 28429 ft 477 kts 106°
2026-05-08 08:32 48.20950 11.64133 28647 ft 479 kts 106°
2026-05-08 08:32 48.20140 11.68997 28844 ft 482 kts 106°
2026-05-08 08:33 48.19327 11.73879 29066 ft 484 kts 106°
2026-05-08 08:33 48.18512 11.78780 29301 ft 485 kts 105°
2026-05-08 08:33 48.17901 11.83759 29622 ft 487 kts 97°
2026-05-08 08:33 48.17578 11.88797 29943 ft 487 kts 97°
2026-05-08 08:34 48.17257 11.93852 30245 ft 486 kts 97°
2026-05-08 08:34 48.16939 11.98815 30510 ft 486 kts 97°
2026-05-08 08:34 48.16519 12.03826 30777 ft 484 kts 104°
2026-05-08 08:34 48.15619 12.08660 30995 ft 481 kts 114°
2026-05-08 08:35 48.14223 12.13186 31219 ft 477 kts 123°
2026-05-08 08:35 48.12398 12.17301 31480 ft 472 kts 132°
2026-05-08 08:35 48.10208 12.20917 31754 ft 467 kts 141°
2026-05-08 08:35 48.07847 12.24241 32024 ft 466 kts 141°
2026-05-08 08:36 48.05492 12.27550 32307 ft 465 kts 141°
2026-05-08 08:36 48.03165 12.30812 32594 ft 464 kts 141°
2026-05-08 08:36 48.00813 12.34099 32884 ft 463 kts 141°
2026-05-08 08:36 47.98463 12.37387 33070 ft 463 kts 141°
2026-05-08 08:37 47.93797 12.43921 33097 ft 458 kts 142°
2026-05-08 08:37 47.89148 12.50419 33099 ft 458 kts 142°
2026-05-08 08:38 47.84526 12.56856 33092 ft 458 kts 142°
2026-05-08 08:38 47.79891 12.63358 33108 ft 459 kts 141°
2026-05-08 08:39 47.75390 12.70086 33101 ft 459 kts 139°
2026-05-08 08:39 47.70926 12.76878 33071 ft 459 kts 140°
2026-05-08 08:40 47.66424 12.83614 33078 ft 460 kts 141°
2026-05-08 08:40 47.61880 12.90320 33100 ft 461 kts 141°
2026-05-08 08:41 47.57358 12.96988 33102 ft 462 kts 141°
2026-05-08 08:41 47.52813 13.03688 33090 ft 462 kts 141°
2026-05-08 08:42 47.48251 13.10385 33072 ft 463 kts 141°
2026-05-08 08:42 47.43681 13.17090 33064 ft 463 kts 141°
2026-05-08 08:43 47.39133 13.23737 33071 ft 463 kts 142°
2026-05-08 08:43 47.34541 13.30404 33085 ft 463 kts 141°
2026-05-08 08:44 47.30568 13.38000 33077 ft 473 kts 128°
2026-05-08 08:44 47.27029 13.46105 33071 ft 474 kts 129°
2026-05-08 08:45 47.23444 13.54236 33073 ft 474 kts 129°
2026-05-08 08:45 47.19840 13.62375 33055 ft 475 kts 129°
2026-05-08 08:46 47.16231 13.70516 33070 ft 475 kts 129°
2026-05-08 08:46 47.12620 13.78647 33068 ft 475 kts 129°
2026-05-08 08:47 47.09020 13.86724 33082 ft 476 kts 129°
2026-05-08 08:47 47.05383 13.94835 33090 ft 476 kts 129°
2026-05-08 08:48 47.01740 14.02943 33095 ft 476 kts 129°
2026-05-08 08:48 46.98090 14.11055 33084 ft 477 kts 129°
2026-05-08 08:49 46.94457 14.19101 33089 ft 477 kts 129°
2026-05-08 08:49 46.90791 14.27204 33097 ft 477 kts 130°
2026-05-08 08:50 46.87129 14.35276 33100 ft 477 kts 130°
2026-05-08 08:50 46.83456 14.43329 33096 ft 476 kts 130°
2026-05-08 08:51 46.79803 14.51302 33104 ft 475 kts 130°
2026-05-08 08:51 46.76134 14.59325 33110 ft 475 kts 130°
2026-05-08 08:52 46.72468 14.67334 33108 ft 475 kts 130°
2026-05-08 08:52 46.70006 14.72682 33102 ft 474 kts 130°
2026-05-08 08:53 46.65940 14.81489 33084 ft 475 kts 130°
2026-05-08 08:53 46.62246 14.89454 33083 ft 475 kts 130°
2026-05-08 08:54 46.58248 14.96998 33089 ft 469 kts 136°
2026-05-08 08:54 46.54084 15.04292 33089 ft 468 kts 136°
2026-05-08 08:55 46.49916 15.11569 33080 ft 469 kts 136°
2026-05-08 08:55 46.45768 15.18786 33085 ft 469 kts 136°
2026-05-08 08:56 46.41590 15.26053 33093 ft 469 kts 136°
2026-05-08 08:56 46.37415 15.33314 33094 ft 469 kts 136°
2026-05-08 08:57 46.33226 15.40553 33066 ft 469 kts 136°
2026-05-08 08:57 46.29060 15.47719 33083 ft 468 kts 136°
2026-05-08 08:58 46.24866 15.54927 33100 ft 468 kts 136°
2026-05-08 08:58 46.20672 15.62112 33106 ft 468 kts 136°
2026-05-08 08:59 46.16479 15.69297 33107 ft 468 kts 136°
2026-05-08 08:59 46.12313 15.76424 33107 ft 468 kts 136°
2026-05-08 09:00 46.08118 15.83591 33105 ft 467 kts 136°
2026-05-08 09:00 46.03913 15.90726 33093 ft 467 kts 136°
2026-05-08 09:01 45.99705 15.97834 33114 ft 466 kts 136°
2026-05-08 09:01 45.95505 16.04916 33102 ft 466 kts 136°
2026-05-08 09:02 45.91328 16.11944 33111 ft 466 kts 136°
2026-05-08 09:02 45.87129 16.19022 33121 ft 465 kts 136°
2026-05-08 09:03 45.82927 16.26079 33116 ft 465 kts 136°
2026-05-08 09:03 45.78720 16.33107 33078 ft 464 kts 136°
2026-05-08 09:04 45.74535 16.40066 33094 ft 464 kts 135°
2026-05-08 09:04 45.70327 16.47072 33097 ft 464 kts 135°
2026-05-08 09:05 45.66122 16.54071 33096 ft 464 kts 135°
2026-05-08 09:05 45.61911 16.61038 33095 ft 463 kts 136°
2026-05-08 09:06 45.57723 16.67951 33093 ft 463 kts 135°
2026-05-08 09:06 45.53506 16.74903 33096 ft 463 kts 135°
2026-05-08 09:07 45.49284 16.81843 33099 ft 463 kts 135°
2026-05-08 09:07 45.45056 16.88772 33101 ft 463 kts 136°
2026-05-08 09:08 45.40848 16.95641 33086 ft 463 kts 136°
2026-05-08 09:08 45.36610 17.02556 33091 ft 464 kts 136°
2026-05-08 09:09 45.32364 17.09458 33095 ft 464 kts 136°
2026-05-08 09:09 45.28110 17.16361 33099 ft 464 kts 136°
2026-05-08 09:10 45.23880 17.23217 33075 ft 465 kts 135°
2026-05-08 09:10 45.19616 17.30109 33086 ft 465 kts 136°
2026-05-08 09:11 45.15337 17.36984 33090 ft 465 kts 136°
2026-05-08 09:11 45.11078 17.43869 33099 ft 465 kts 135°
2026-05-08 09:12 45.06879 17.50844 33083 ft 466 kts 134°
2026-05-08 09:12 45.02720 17.57782 33090 ft 465 kts 134°
2026-05-08 09:13 44.98518 17.64730 33090 ft 465 kts 135°
2026-05-08 09:13 44.94299 17.71645 33094 ft 465 kts 135°
2026-05-08 09:14 44.90103 17.78513 33093 ft 465 kts 135°
2026-05-08 09:14 44.85880 17.85411 33094 ft 465 kts 135°
2026-05-08 09:15 44.81658 17.92313 33099 ft 465 kts 135°
2026-05-08 09:15 44.77439 17.99204 33099 ft 464 kts 135°
2026-05-08 09:16 44.73921 18.04912 33096 ft 464 kts 135°
2026-05-08 09:16 44.69005 18.12868 33097 ft 463 kts 135°
2026-05-08 09:17 44.64788 18.19680 33114 ft 461 kts 135°
2026-05-08 09:17 44.60583 18.26461 33116 ft 460 kts 135°
2026-05-08 09:18 44.57095 18.32073 33111 ft 459 kts 135°
2026-05-08 09:18 44.52214 18.39905 33085 ft 458 kts 135°
2026-05-08 09:19 44.48026 18.46615 33084 ft 458 kts 135°
2026-05-08 09:19 44.44537 18.52188 33076 ft 457 kts 135°
2026-05-08 09:20 44.40342 18.58874 33098 ft 457 kts 135°
2026-05-08 09:20 44.36152 18.65526 33088 ft 456 kts 135°
2026-05-08 09:21 44.31958 18.72165 33102 ft 456 kts 135°
2026-05-08 09:23 44.17323 18.95263 33077 ft 454 kts 135°
2026-05-08 09:23 44.13137 19.01841 33108 ft 453 kts 135°
2026-05-08 09:24 44.08981 19.08344 33106 ft 452 kts 135°
2026-05-08 09:24 44.04802 19.14876 33144 ft 454 kts 135°
2026-05-08 09:24 44.02705 19.18152 33336 ft 455 kts 135°
2026-05-08 09:25 44.00601 19.21438 33588 ft 455 kts 136°
2026-05-08 09:25 43.98497 19.24719 33864 ft 455 kts 136°
2026-05-08 09:25 43.96393 19.27990 34166 ft 454 kts 136°
2026-05-08 09:25 43.94289 19.31251 34403 ft 453 kts 136°
2026-05-08 09:26 43.92212 19.34459 34606 ft 453 kts 136°
2026-05-08 09:26 43.90105 19.37707 34804 ft 452 kts 136°
2026-05-08 09:26 43.88008 19.40948 35030 ft 451 kts 136°
2026-05-08 09:27 43.83827 19.47426 35075 ft 450 kts 136°
2026-05-08 09:27 43.79649 19.53875 35082 ft 449 kts 136°
2026-05-08 09:28 43.75468 19.60295 35075 ft 449 kts 136°
2026-05-08 09:28 43.71306 19.66663 35069 ft 449 kts 136°
2026-05-08 09:29 43.67117 19.73059 35058 ft 448 kts 137°
2026-05-08 09:29 43.62778 19.79218 35046 ft 447 kts 140°
2026-05-08 09:30 43.58294 19.85135 35053 ft 446 kts 141°
2026-05-08 09:30 43.53836 19.90997 35051 ft 446 kts 140°
2026-05-08 09:31 43.49387 19.96957 35051 ft 446 kts 140°
2026-05-08 09:31 43.44949 20.02939 35041 ft 446 kts 140°
2026-05-08 09:32 43.40508 20.08895 35041 ft 446 kts 140°
2026-05-08 09:32 43.36082 20.14801 35039 ft 447 kts 140°
2026-05-08 09:33 43.31615 20.20743 35036 ft 447 kts 140°
2026-05-08 09:33 43.27147 20.26689 35026 ft 448 kts 140°
2026-05-08 09:34 43.22667 20.32630 35035 ft 448 kts 140°
2026-05-08 09:34 43.18211 20.38527 35043 ft 448 kts 140°
2026-05-08 09:35 43.13723 20.44458 35044 ft 449 kts 140°
2026-05-08 09:35 43.09228 20.50383 35039 ft 449 kts 140°
2026-05-08 09:36 43.04727 20.56299 35044 ft 449 kts 140°
2026-05-08 09:36 43.00220 20.62210 35047 ft 449 kts 140°
2026-05-08 09:37 42.95744 20.68077 35053 ft 449 kts 140°
2026-05-08 09:37 42.91240 20.73978 35056 ft 449 kts 140°
2026-05-08 09:38 42.86727 20.79868 35061 ft 449 kts 140°
2026-05-08 09:38 42.82206 20.85737 35058 ft 449 kts 140°
2026-05-08 09:39 42.77719 20.91559 35065 ft 449 kts 140°
2026-05-08 09:39 42.73194 20.97418 35069 ft 449 kts 140°
2026-05-08 09:40 42.68672 21.03274 35072 ft 449 kts 140°
2026-05-08 09:40 42.64148 21.09124 35074 ft 449 kts 140°
2026-05-08 09:41 42.59656 21.14908 35066 ft 448 kts 140°
2026-05-08 09:41 42.55137 21.20717 35090 ft 447 kts 140°
2026-05-08 09:42 42.50617 21.26513 35088 ft 447 kts 140°
2026-05-08 09:42 42.46103 21.32283 35086 ft 446 kts 140°
2026-05-08 09:43 42.41625 21.37996 35082 ft 445 kts 140°
2026-05-08 09:43 42.37117 21.43744 35086 ft 445 kts 140°
2026-05-08 09:44 42.32614 21.49475 35072 ft 445 kts 140°
2026-05-08 09:44 42.28103 21.55199 35078 ft 445 kts 140°
2026-05-08 09:45 42.23590 21.60916 35083 ft 445 kts 140°
2026-05-08 09:45 42.19152 21.66657 35080 ft 445 kts 139°
2026-05-08 09:46 42.14763 21.72549 35079 ft 445 kts 138°
2026-05-08 09:46 42.10375 21.78438 35068 ft 445 kts 138°
2026-05-08 09:47 42.05962 21.84285 35063 ft 445 kts 139°
2026-05-08 09:47 42.01566 21.90073 35071 ft 445 kts 139°
2026-05-08 09:48 41.97141 21.95902 35075 ft 446 kts 139°
2026-05-08 09:48 41.92710 22.01726 35082 ft 446 kts 139°
2026-05-08 09:49 41.88304 22.07493 35083 ft 446 kts 139°
2026-05-08 09:49 41.83868 22.13301 35068 ft 446 kts 139°
2026-05-08 09:50 41.79427 22.19106 35069 ft 446 kts 139°
2026-05-08 09:50 41.74975 22.24913 35074 ft 447 kts 139°
2026-05-08 09:51 41.70513 22.30721 35081 ft 448 kts 139°
2026-05-08 09:51 41.66070 22.36486 35087 ft 448 kts 139°
2026-05-08 09:52 41.61599 22.42275 35087 ft 448 kts 139°
2026-05-08 09:52 41.57122 22.48068 35065 ft 448 kts 139°
2026-05-08 09:53 41.52639 22.53861 35072 ft 450 kts 139°
2026-05-08 09:53 41.48127 22.59679 35080 ft 452 kts 139°
2026-05-08 09:54 41.43620 22.65471 35082 ft 454 kts 139°
2026-05-08 09:54 41.39066 22.71303 35088 ft 455 kts 139°
2026-05-08 09:55 41.34503 22.77140 35094 ft 455 kts 140°
2026-05-08 09:55 41.29527 22.82126 35066 ft 450 kts 151°
2026-05-08 09:56 41.24280 22.86676 35079 ft 451 kts 151°
2026-05-08 09:56 41.19010 22.91233 35084 ft 453 kts 151°
2026-05-08 09:57 41.11089 22.98097 35090 ft 454 kts 151°
2026-05-08 09:57 41.06103 23.03219 35086 ft 458 kts 145°
2026-05-08 09:58 41.01164 23.08556 35089 ft 459 kts 145°
2026-05-08 09:58 40.96210 23.13882 35077 ft 460 kts 146°
2026-05-08 09:59 40.91233 23.19234 35079 ft 461 kts 146°
2026-05-08 09:59 40.86244 23.24573 35086 ft 462 kts 146°
2026-05-08 10:00 40.81266 23.29894 35091 ft 463 kts 146°
2026-05-08 10:00 40.76267 23.35240 35087 ft 463 kts 146°
2026-05-08 10:01 40.71260 23.40583 35102 ft 463 kts 146°
2026-05-08 10:01 40.66280 23.45877 35086 ft 463 kts 147°
2026-05-08 10:02 40.61255 23.51206 35100 ft 465 kts 147°
2026-05-08 10:02 40.56221 23.56544 35103 ft 466 kts 147°
2026-05-08 10:03 40.51173 23.61885 35109 ft 466 kts 147°
2026-05-08 10:03 40.46119 23.67217 35121 ft 466 kts 147°
2026-05-08 10:04 40.41098 23.72507 35122 ft 466 kts 147°
2026-05-08 10:04 40.36036 23.77813 35114 ft 466 kts 148°
2026-05-08 10:05 40.30972 23.83132 35116 ft 467 kts 148°
2026-05-08 10:05 40.25895 23.88451 35125 ft 468 kts 148°
2026-05-08 10:06 40.20813 23.93755 35132 ft 468 kts 148°
2026-05-08 10:06 40.15754 23.99028 35135 ft 468 kts 148°
2026-05-08 10:07 40.10656 24.04329 35143 ft 468 kts 148°
2026-05-08 10:07 40.05556 24.09624 35128 ft 469 kts 148°
2026-05-08 10:08 40.00482 24.14889 35121 ft 469 kts 149°
2026-05-08 10:08 39.95372 24.20189 35135 ft 469 kts 149°
2026-05-08 10:09 39.90260 24.25462 35142 ft 469 kts 149°
2026-05-08 10:09 39.85141 24.30732 35147 ft 469 kts 149°
2026-05-08 10:10 39.80021 24.35991 35152 ft 469 kts 149°
2026-05-08 10:10 39.74933 24.41215 35120 ft 469 kts 149°
2026-05-08 10:11 39.69806 24.46477 35126 ft 470 kts 150°
2026-05-08 10:11 39.64666 24.51725 35137 ft 471 kts 150°
2026-05-08 10:12 39.59513 24.56978 35142 ft 471 kts 150°
2026-05-08 10:12 39.54393 24.62198 35147 ft 471 kts 150°
2026-05-08 10:13 39.49231 24.67446 35149 ft 472 kts 150°
2026-05-08 10:13 39.44064 24.72687 35135 ft 472 kts 150°
2026-05-08 10:14 39.38883 24.77930 35144 ft 473 kts 150°
2026-05-08 10:14 39.33726 24.83143 35146 ft 474 kts 150°
2026-05-08 10:15 39.28530 24.88387 35146 ft 474 kts 150°
2026-05-08 10:15 39.23327 24.93621 35146 ft 474 kts 150°
2026-05-08 10:16 39.18120 24.98854 35122 ft 475 kts 150°
2026-05-08 10:16 39.12892 25.04092 35130 ft 479 kts 150°
2026-05-08 10:17 39.07638 25.09344 35145 ft 482 kts 150°
2026-05-08 10:17 39.02347 25.14635 35150 ft 482 kts 150°
2026-05-08 10:18 38.97052 25.19923 35154 ft 482 kts 150°
2026-05-08 10:18 38.91749 25.25193 35136 ft 482 kts 150°
2026-05-08 10:19 38.86473 25.30425 35146 ft 483 kts 150°
2026-05-08 10:20 38.78491 25.38334 35145 ft 484 kts 150°
2026-05-08 10:20 38.73165 25.43605 35153 ft 484 kts 150°
2026-05-08 10:21 38.67859 25.48840 35157 ft 484 kts 150°
2026-05-08 10:21 38.62514 25.54097 35140 ft 485 kts 150°
2026-05-08 10:22 38.57155 25.59361 35157 ft 486 kts 150°
2026-05-08 10:22 38.51789 25.64629 35161 ft 487 kts 150°
2026-05-08 10:23 38.46408 25.69889 35137 ft 489 kts 150°
2026-05-08 10:23 38.41030 25.75137 35147 ft 491 kts 150°
2026-05-08 10:24 38.35589 25.80448 35141 ft 493 kts 150°
2026-05-08 10:24 38.30136 25.85747 35141 ft 494 kts 150°
2026-05-08 10:25 38.24505 25.90631 35147 ft 482 kts 162°
2026-05-08 10:25 38.21506 25.92282 35150 ft 471 kts 170°
2026-05-08 10:25 38.18417 25.93672 35154 ft 471 kts 170°
2026-05-08 10:26 38.12229 25.96470 35045 ft 475 kts 169°
2026-05-08 10:26 38.09105 25.97885 34802 ft 478 kts 169°
2026-05-08 10:26 38.05968 25.99311 34565 ft 480 kts 169°
2026-05-08 10:26 38.02966 26.00680 34343 ft 481 kts 169°
2026-05-08 10:27 37.99818 26.02120 34099 ft 481 kts 169°
2026-05-08 10:27 37.96713 26.03540 33846 ft 482 kts 169°
2026-05-08 10:27 37.93556 26.04980 33579 ft 482 kts 169°
2026-05-08 10:27 37.90397 26.06415 33315 ft 482 kts 169°
2026-05-08 10:28 37.87247 26.07841 33028 ft 481 kts 169°
2026-05-08 10:28 37.84117 26.09254 32584 ft 481 kts 168°
2026-05-08 10:28 37.80931 26.10684 31483 ft 490 kts 168°
2026-05-08 10:28 37.77710 26.12129 30646 ft 492 kts 168°
2026-05-08 10:29 37.74497 26.13581 30086 ft 488 kts 167°
2026-05-08 10:29 37.71759 26.14824 29529 ft 484 kts 167°
2026-05-08 10:29 37.68643 26.16234 28949 ft 480 kts 167°
2026-05-08 10:29 37.65511 26.17643 28365 ft 476 kts 167°
2026-05-08 10:30 37.62406 26.19032 27791 ft 471 kts 167°
2026-05-08 10:30 37.59330 26.20410 27223 ft 468 kts 167°
2026-05-08 10:30 37.56273 26.21778 26665 ft 465 kts 167°
2026-05-08 10:30 37.53232 26.23136 26101 ft 462 kts 166°
2026-05-08 10:31 37.50209 26.24490 25541 ft 460 kts 166°
2026-05-08 10:31 37.47200 26.25839 25017 ft 457 kts 166°
2026-05-08 10:31 37.44249 26.27159 24376 ft 458 kts 165°
2026-05-08 10:31 37.41235 26.28499 23646 ft 461 kts 165°
2026-05-08 10:32 37.38198 26.29846 22750 ft 464 kts 165°
2026-05-08 10:32 37.35141 26.31202 21872 ft 467 kts 165°
2026-05-08 10:32 37.32067 26.32569 21018 ft 470 kts 165°
2026-05-08 10:32 37.28984 26.33945 20185 ft 471 kts 164°
2026-05-08 10:33 37.25938 26.35305 19456 ft 470 kts 164°
2026-05-08 10:33 37.22871 26.36717 18760 ft 470 kts 160°
2026-05-08 10:33 37.19946 26.38551 18012 ft 469 kts 155°
2026-05-08 10:33 37.17068 26.40454 17266 ft 466 kts 155°
2026-05-08 10:34 37.14213 26.42312 16658 ft 459 kts 155°
2026-05-08 10:34 37.11420 26.44185 16089 ft 453 kts 150°
2026-05-08 10:34 37.08870 26.46468 15531 ft 447 kts 146°
2026-05-08 10:34 37.06395 26.48782 14977 ft 440 kts 145°
2026-05-08 10:35 37.03962 26.51064 14441 ft 434 kts 145°
2026-05-08 10:35 37.01604 26.53278 13918 ft 427 kts 145°
2026-05-08 10:35 36.99244 26.55494 13303 ft 421 kts 145°
2026-05-08 10:35 36.96920 26.57669 12712 ft 414 kts 145°
2026-05-08 10:36 36.94649 26.59770 12113 ft 398 kts 145°
2026-05-08 10:36 36.92465 26.61786 11553 ft 383 kts 145°
2026-05-08 10:36 36.90437 26.63855 11064 ft 368 kts 141°
2026-05-08 10:36 36.88578 26.65895 10821 ft 344 kts 140°
2026-05-08 10:37 36.86848 26.67796 10569 ft 327 kts 140°
2026-05-08 10:37 36.85183 26.69627 10355 ft 311 kts 140°
2026-05-08 10:37 36.83598 26.71373 10112 ft 297 kts 140°
2026-05-08 10:37 36.82066 26.73061 9847 ft 292 kts 140°
2026-05-08 10:38 36.80546 26.74734 9556 ft 289 kts 140°
2026-05-08 10:38 36.79047 26.76385 9021 ft 286 kts 140°
2026-05-08 10:38 36.77557 26.78024 8386 ft 284 kts 140°
2026-05-08 10:38 36.76081 26.79645 7785 ft 283 kts 140°
2026-05-08 10:39 36.74618 26.81251 7260 ft 277 kts 140°
2026-05-08 10:39 36.73215 26.82793 6736 ft 268 kts 139°
2026-05-08 10:39 36.71905 26.84408 6194 ft 262 kts 136°
2026-05-08 10:39 36.70653 26.86029 5597 ft 258 kts 135°
2026-05-08 10:40 36.69414 26.87643 5073 ft 257 kts 135°
2026-05-08 10:40 36.68173 26.89239 4631 ft 254 kts 135°
2026-05-08 10:40 36.66959 26.90791 4374 ft 246 kts 135°
2026-05-08 10:40 36.65779 26.92296 4073 ft 240 kts 135°
2026-05-08 10:41 36.64841 26.93965 3813 ft 233 kts 118°
2026-05-08 10:41 36.64147 26.95756 3583 ft 227 kts 116°
2026-05-08 10:41 36.63506 26.97489 3339 ft 221 kts 115°
2026-05-08 10:41 36.62942 26.99236 3109 ft 216 kts 102°
2026-05-08 10:42 36.63090 27.01022 2900 ft 204 kts 65°
2026-05-08 10:42 36.63949 27.02371 2716 ft 197 kts 43°
2026-05-08 10:42 36.64913 27.03561 2499 ft 194 kts 50°
2026-05-08 10:42 36.65694 27.04928 2358 ft 193 kts 57°
2026-05-08 10:43 36.66381 27.06351 2238 ft 190 kts 59°
2026-05-08 10:43 36.67032 27.07776 2152 ft 188 kts 60°
2026-05-08 10:43 36.67651 27.09180 2060 ft 187 kts 61°
2026-05-08 10:43 36.68258 27.10614 2027 ft 188 kts 62°
2026-05-08 10:44 36.68856 27.12023 2054 ft 183 kts 60°
2026-05-08 10:44 36.69651 27.13239 2012 ft 178 kts 40°
2026-05-08 10:44 36.70680 27.14006 1881 ft 170 kts 18°
2026-05-08 10:44 36.71817 27.14207 1743 ft 163 kts 356°
2026-05-08 10:45 36.72918 27.13942 1599 ft 161 kts 341°
2026-05-08 10:45 36.73938 27.13407 1460 ft 159 kts 330°
2026-05-08 10:45 36.74870 27.12688 1276 ft 160 kts 326°
2026-05-08 10:45 36.75813 27.11948 1079 ft 158 kts 327°
2026-05-08 10:46 36.76740 27.11226 849 ft 155 kts 326°
2026-05-08 10:46 36.77671 27.10513 654 ft 158 kts 327°
2026-05-08 10:46 36.78598 27.09785 416 ft 157 kts 327°
2026-05-08 10:46 36.79440 27.09126 413 ft 115 kts 328°
2026-05-08 10:47 36.79909 27.08759 412 ft 56 kts 328°
2026-05-08 10:47 36.80150 27.08574 418 ft 27 kts 328°
2026-05-08 10:47 36.80252 27.08495 410 ft 8 kts 329°
2026-05-08 10:47 36.80292 27.08466 415 ft 11 kts 329°
2026-05-08 10:48 36.80355 27.08499 421 ft 12 kts 84°
2026-05-08 10:48 36.80336 27.08604 415 ft 14 kts 105°
2026-05-08 10:48 36.80296 27.08704 411 ft 14 kts 141°
2026-05-08 10:48 36.80215 27.08764 418 ft 13 kts 148°
2026-05-08 10:49 36.80135 27.08826 419 ft 14 kts 148°
2026-05-08 10:49 36.80074 27.08874 416 ft 1 kts 148°
2026-05-08 10:49 36.80067 27.08880 416 ft 3 kts 148°
2026-05-08 10:49 36.80047 27.08905 412 ft 4 kts 112°
2026-05-08 10:50 36.80058 27.08942 417 ft 5 kts 59°
2026-05-08 10:50 36.80075 27.08975 414 ft 2 kts 57°
2026-05-08 10:50 36.80077 27.08979 413 ft 0 kts 58°